FW2710 Weather Reports


Display with metric or nautical units.
time (UTC)temp
F
wind
direction
speed
MPH
gust
MPH
rain 1hr
in
rain 24hr
in
rain mn
in
humidity
%
barometer
mb
20260510165526 63 0 0.0 6.0 0.00 0.00 0.00 33 1020.2
20260510165026 63 0 0.0 6.0 0.00 0.00 0.00 31 1020.3
20260510164542 64 0 0.0 1.0 0.00 0.00 0.00 32 1020.3
20260510164025 63 0 0.0 1.0 0.00 0.00 0.00 32 1020.4
20260510163525 63 0 0.0 2.0 0.00 0.00 0.00 34 1020.4
20260510163046 63 0 0.0 2.0 0.00 0.00 0.00 33 1020.4
20260510162525 63 0 0.0 2.0 0.00 0.00 0.00 34 1020.5
20260510162026 63 0 0.0 2.0 0.00 0.00 0.00 39 1020.5
20260510161545 62 0 0.0 0.0 0.00 0.00 0.00 36 1020.2
20260510161027 62 0 0.0 0.0 0.00 0.00 0.00 37 1020.3
20260510160527 62 0 0.0 6.0 0.00 0.00 0.00 35 1020.2
20260510160044 62 0 0.0 6.0 0.00 0.00 0.00 37 1020.3
20260510155530 61 0 0.0 0.0 0.00 0.00 0.00 36 1020.4
20260510155026 61 0 0.0 0.0 0.00 0.00 0.00 32 1020.5
20260510154539 61 0 0.0 0.0 0.00 0.00 0.00 34 1020.2
20260510154025 61 0 0.0 1.0 0.00 0.00 0.00 36 1020.1
20260510153528 60 0 0.0 1.0 0.00 0.00 0.00 37 1019.9
20260510153040 60 0 0.0 1.0 0.00 0.00 0.00 37 1019.8
20260510152526 60 0 0.0 1.0 0.00 0.00 0.00 38 1019.7
20260510152029 60 0 0.0 2.0 0.00 0.00 0.00 44 1019.5
20260510151547 59 0 0.0 2.0 0.00 0.00 0.00 44 1019.5
20260510151025 59 0 0.0 2.0 0.00 0.00 0.00 41 1019.4
20260510150526 59 0 0.0 0.0 0.00 0.00 0.00 42 1019.3
20260510150049 59 0 0.0 0.0 0.00 0.00 0.00 43 1019.2
20260510145526 59 0 0.0 0.0 0.00 0.00 0.00 44 1019.3
20260510145025 59 0 0.0 0.0 0.00 0.00 0.00 43 1019.3
20260510144540 59 0 0.0 0.0 0.00 0.00 0.00 45 1019.4
20260510144026 58 0 0.0 0.0 0.00 0.00 0.00 46 1019.4
20260510143525 58 0 0.0 0.0 0.00 0.00 0.00 47 1019.5
20260510143040 58 0 0.0 0.0 0.00 0.00 0.00 50 1019.6
20260510142526 57 0 0.0 0.0 0.00 0.00 0.00 48 1019.7
20260510142026 57 0 0.0 0.0 0.00 0.00 0.00 49 1019.7
20260510141537 57 0 0.0 0.0 0.00 0.00 0.00 49 1019.7
20260510141027 56 0 0.0 0.0 0.00 0.00 0.00 50 1019.6
20260510140525 56 0 0.0 0.0 0.00 0.00 0.00 51 1019.5
20260510140038 55 0 0.0 0.0 0.00 0.00 0.00 52 1019.4
20260510135525 55 0 0.0 0.0 0.00 0.00 0.00 53 1019.4
20260510135025 55 0 0.0 0.0 0.00 0.00 0.00 54 1019.4
20260510134537 54 0 0.0 0.0 0.00 0.00 0.00 54 1019.3
20260510134025 54 0 0.0 0.0 0.00 0.00 0.00 53 1019.2
20260510133526 54 0 0.0 0.0 0.00 0.00 0.00 55 1019.2
20260510133042 54 0 0.0 0.0 0.00 0.00 0.00 53 1019.3
20260510132526 54 0 0.0 0.0 0.00 0.00 0.00 54 1019.3
20260510132028 54 0 0.0 0.0 0.00 0.00 0.00 54 1019.3
20260510131536 54 0 0.0 0.0 0.00 0.00 0.00 53 1019.3
20260510131026 54 0 0.0 0.0 0.00 0.00 0.00 53 1019.1
20260510130530 54 0 0.0 0.0 0.00 0.00 0.00 56 1018.9
20260510130040 53 0 0.0 0.0 0.00 0.00 0.00 57 1018.8
20260510125525 52 0 0.0 0.0 0.00 0.00 0.00 60 1018.8
20260510125025 52 0 0.0 1.0 0.00 0.00 0.00 60 1018.7
20260510124547 51 0 0.0 1.0 0.00 0.00 0.00 61 1018.5
20260510124028 51 0 0.0 1.0 0.00 0.00 0.00 65 1018.4
20260510123525 50 0 0.0 0.0 0.00 0.00 0.00 66 1018.4
20260510123036 49 0 0.0 0.0 0.00 0.00 0.00 68 1018.4
20260510122525 49 0 0.0 0.0 0.00 0.00 0.00 70 1018.4
20260510122025 48 0 0.0 0.0 0.00 0.00 0.00 72 1018.3
20260510121539 47 0 0.0 0.0 0.00 0.00 0.00 73 1018.3
20260510121025 47 0 0.0 0.0 0.00 0.00 0.00 74 1018.3
20260510120527 46 0 0.0 0.0 0.00 0.00 0.00 75 1018.3
20260510120039 46 0 0.0 0.0 0.00 0.00 0.00 75 1018.1
20260510115526 46 0 0.0 0.0 0.00 0.00 0.00 75 1018.1
20260510115030 46 0 0.0 0.0 0.00 0.00 0.00 75 1017.9
20260510114547 46 0 0.0 0.0 0.00 0.00 0.00 76 1017.8
20260510114025 46 0 0.0 0.0 0.00 0.00 0.00 76 1017.8
20260510113525 45 0 0.0 0.0 0.00 0.00 0.00 76 1017.7
20260510113038 45 0 0.0 0.0 0.00 0.00 0.00 76 1017.6
20260510112527 45 0 0.0 1.0 0.00 0.00 0.00 77 1017.4
20260510112026 44 0 0.0 1.0 0.00 0.00 0.00 79 1017.3
20260510111539 43 0 0.0 0.0 0.00 0.00 0.00 80 1017.2
20260510111025 43 0 0.0 0.0 0.00 0.00 0.00 81 1017.1
20260510110527 43 0 0.0 0.0 0.00 0.00 0.00 81 1017.1
20260510110045 43 0 0.0 0.0 0.00 0.00 0.00 81 1017.1
20260510105525 43 0 0.0 0.0 0.00 0.00 0.00 80 1016.7
20260510105025 43 0 0.0 0.0 0.00 0.00 0.00 81 1016.6
20260510104539 43 0 0.0 0.0 0.00 0.00 0.00 80 1016.5
20260510104028 44 0 0.0 0.0 0.00 0.00 0.00 80 1016.3
20260510103525 44 0 0.0 0.0 0.00 0.00 0.00 80 1016.3
20260510103043 44 0 0.0 0.0 0.00 0.00 0.00 80 1016.1
20260510102527 44 0 0.0 0.0 0.00 0.00 0.00 80 1016.1
20260510102027 44 0 0.0 0.0 0.00 0.00 0.00 80 1015.8
20260510101538 44 0 0.0 0.0 0.00 0.00 0.00 80 1015.6
20260510101025 45 0 0.0 0.0 0.00 0.00 0.00 80 1015.5
20260510100525 45 0 0.0 0.0 0.00 0.00 0.00 80 1015.6
20260510100040 45 0 0.0 0.0 0.00 0.00 0.00 80 1015.4
20260510095529 45 0 0.0 0.0 0.00 0.00 0.00 80 1015.2
20260510095025 45 0 0.0 0.0 0.00 0.00 0.00 80 1015.1
20260510094547 45 0 0.0 0.0 0.00 0.00 0.00 80 1015.0
20260510094026 46 0 0.0 0.0 0.00 0.00 0.00 79 1014.9
20260510093525 46 0 0.0 0.0 0.00 0.00 0.00 79 1014.9
20260510093039 46 0 0.0 0.0 0.00 0.00 0.00 78 1014.9
20260510092527 46 0 0.0 0.0 0.00 0.00 0.00 78 1014.9
20260510092023 47 0 0.0 0.0 0.00 0.00 0.00 78 1014.7
20260510091542 47 0 0.0 0.0 0.00 0.00 0.00 77 1014.7
20260510091025 47 0 0.0 0.0 0.00 0.00 0.00 76 1014.6
20260510090527 48 0 0.0 0.0 0.00 0.00 0.00 75 1014.5
20260510090038 48 0 0.0 0.0 0.00 0.00 0.00 75 1014.4
20260510085526 49 0 0.0 0.0 0.00 0.00 0.00 74 1014.4
20260510085026 49 0 0.0 0.0 0.00 0.00 0.00 74 1014.5
20260510084539 50 0 0.0 0.0 0.00 0.00 0.00 73 1014.5
20260510084022 50 0 0.0 0.0 0.00 0.00 0.00 73 1014.4
20260510083524 51 0 0.0 0.0 0.00 0.00 0.00 73 1014.4
20260510083052 51 0 0.0 0.0 0.00 0.00 0.00 73 1014.5
20260510082522 51 0 0.0 0.0 0.00 0.00 0.00 73 1014.5
20260510082027 52 0 0.0 0.0 0.00 0.00 0.00 74 1014.4
20260510081542 52 0 0.0 0.0 0.00 0.00 0.00 74 1014.4
20260510081023 52 0 0.0 0.0 0.00 0.00 0.00 73 1014.4
20260510080526 52 0 0.0 0.0 0.00 0.00 0.00 73 1014.4
20260510080039 52 0 0.0 0.0 0.00 0.00 0.00 72 1014.2
20260510075529 53 0 0.0 0.0 0.00 0.00 0.00 71 1014.3
20260510075026 53 0 0.0 0.0 0.00 0.00 0.00 70 1014.2
20260510074541 54 0 0.0 0.0 0.00 0.00 0.00 70 1014.2
20260510074026 54 0 0.0 0.0 0.00 0.00 0.00 69 1014.1
20260510073525 54 0 0.0 0.0 0.00 0.00 0.00 69 1014.0
20260510073053 55 0 0.0 0.0 0.00 0.00 0.00 68 1014.1
20260510072528 55 0 0.0 0.0 0.00 0.00 0.00 68 1014.2
20260510072023 55 0 0.0 0.0 0.00 0.00 0.00 69 1014.1
20260510071543 55 0 0.0 0.0 0.00 0.00 0.00 66 1014.2
20260510071025 56 0 0.0 0.0 0.00 0.00 0.00 65 1014.2
20260510070526 56 0 0.0 0.0 0.00 0.00 0.00 65 1014.4
20260510070042 56 0 0.0 0.0 0.00 0.00 0.00 64 1014.3
20260510065525 56 0 0.0 0.0 0.00 0.00 0.00 65 1013.8
20260510065027 56 0 0.0 0.0 0.00 0.00 0.00 65 1013.6
20260510064540 56 0 0.0 0.0 0.00 0.00 0.00 66 1013.6
20260510064025 56 0 0.0 0.0 0.00 0.00 0.00 65 1013.5
20260510063525 56 0 0.0 0.0 0.00 0.00 0.00 66 1013.5
20260510063040 56 0 0.0 0.0 0.00 0.00 0.00 67 1013.6
20260510062526 56 0 0.0 0.0 0.00 0.00 0.00 67 1013.4
20260510062025 57 0 0.0 0.0 0.00 0.00 0.00 68 1013.4
20260510061539 57 0 0.0 0.0 0.00 0.00 0.00 67 1013.4
20260510061022 57 0 0.0 0.0 0.00 0.00 0.00 67 1013.3
20260510060530 57 0 0.0 0.0 0.00 0.00 0.00 69 1013.2
20260510060044 57 0 0.0 0.0 0.00 0.00 0.00 68 1013.3
20260510055523 57 0 0.0 0.0 0.00 0.00 0.00 67 1013.1
20260510055025 57 0 0.0 0.0 0.00 0.00 0.00 68 1013.2
20260510054541 57 0 0.0 0.0 0.00 0.00 0.00 68 1013.1
20260510054026 58 0 0.0 0.0 0.00 0.00 0.00 68 1013.3
20260510053525 58 0 0.0 0.0 0.00 0.00 0.00 68 1013.1
20260510053038 58 0 0.0 0.0 0.00 0.00 0.00 67 1012.9
20260510052525 58 0 0.0 0.0 0.00 0.00 0.00 65 1012.8
20260510052025 59 0 0.0 0.0 0.00 0.00 0.00 63 1012.7
20260510051539 59 0 0.0 0.0 0.00 0.00 0.00 61 1012.7
20260510051025 59 0 0.0 0.0 0.00 0.00 0.00 61 1012.7
20260510050525 59 0 0.0 0.0 0.00 0.00 0.00 61 1012.5
20260510050041 59 0 0.0 0.0 0.00 0.00 0.00 60 1012.5
20260510045528 60 0 0.0 0.0 0.00 0.00 0.00 60 1012.6
20260510045026 60 0 0.0 0.0 0.00 0.00 0.00 60 1012.6
20260510044544 60 0 0.0 0.0 0.00 0.00 0.00 60 1012.5
20260510044025 60 0 0.0 0.0 0.00 0.00 0.00 60 1012.4
20260510043526 60 0 0.0 0.0 0.00 0.00 0.00 60 1012.4
20260510043039 61 0 0.0 0.0 0.00 0.00 0.00 59 1012.4
20260510042525 61 0 0.0 0.0 0.00 0.00 0.00 57 1012.4
20260510042025 62 0 0.0 0.0 0.00 0.00 0.00 55 1012.3
20260510041542 62 0 0.0 0.0 0.00 0.00 0.00 54 1012.2
20260510041025 62 0 0.0 3.0 0.00 0.00 0.00 54 1012.1
20260510040525 62 0 0.0 3.0 0.00 0.00 0.00 53 1012.0
20260510040038 62 0 0.0 2.0 0.00 0.00 0.00 53 1011.8
20260510035523 62 0 0.0 0.0 0.00 0.00 0.00 53 1011.8
20260510035022 62 0 0.0 0.0 0.00 0.00 0.00 53 1011.7
20260510034535 62 0 0.0 0.0 0.00 0.00 0.00 53 1011.7
20260510034022 63 0 0.0 0.0 0.00 0.00 0.00 53 1011.5
20260510033527 63 0 0.0 0.0 0.00 0.00 0.00 53 1011.4
20260510033039 62 0 0.0 0.0 0.00 0.00 0.00 53 1011.3
20260510032526 62 0 0.0 0.0 0.00 0.00 0.00 54 1011.3
20260510032027 62 0 0.0 0.0 0.00 0.00 0.00 54 1011.0
20260510031538 62 0 0.0 0.0 0.00 0.00 0.00 55 1011.1
20260510031026 62 0 0.0 0.0 0.00 0.00 0.00 56 1011.1
20260510030522 62 0 0.0 0.0 0.00 0.00 0.00 56 1011.0
20260510030049 62 0 0.0 0.0 0.00 0.00 0.00 56 1010.9
20260510025522 62 0 0.0 0.0 0.00 0.00 0.00 55 1010.9
20260510025025 62 0 0.0 0.0 0.00 0.00 0.00 55 1010.7
20260510024535 63 0 0.0 0.0 0.00 0.00 0.00 54 1010.7
20260510024101 63 0 0.0 0.0 0.00 0.00 0.00 54 1010.6
20260510024025 63 0 0.0 0.0 0.00 0.00 0.00 54 1010.6
20260510023525 63 0 0.0 0.0 0.00 0.00 0.00 54 1010.5
20260510023039 63 0 0.0 0.0 0.00 0.00 0.00 54 1010.4
20260510022525 63 0 0.0 0.0 0.00 0.00 0.00 53 1010.3
20260510022025 63 0 0.0 0.0 0.00 0.00 0.00 52 1010.2
20260510021539 64 0 0.0 0.0 0.00 0.00 0.00 52 1010.1
20260510021024 64 0 0.0 0.0 0.00 0.00 0.00 52 1010.0
20260510020524 64 0 0.0 0.0 0.00 0.00 0.00 51 1010.0
20260510020038 64 0 0.0 0.0 0.00 0.00 0.00 50 1009.9
20260510015529 65 0 0.0 0.0 0.00 0.00 0.00 49 1009.8
20260510015025 65 0 0.0 0.0 0.00 0.00 0.00 48 1009.7
20260510014535 65 0 0.0 0.0 0.00 0.00 0.00 47 1009.7
20260510014025 65 0 0.0 0.0 0.00 0.00 0.00 47 1009.5
20260510013522 65 0 0.0 0.0 0.00 0.00 0.00 46 1009.3
20260510013042 66 0 0.0 0.0 0.00 0.00 0.00 45 1009.3
20260510012525 66 0 0.0 0.0 0.00 0.00 0.00 45 1009.3
20260510012022 66 0 0.0 0.0 0.00 0.00 0.00 45 1009.3
20260510011546 66 0 0.0 0.0 0.00 0.00 0.00 46 1009.2
20260510011024 66 0 0.0 0.0 0.00 0.00 0.00 46 1009.1
20260510010522 66 0 0.0 0.0 0.00 0.00 0.00 46 1009.0
20260510010038 66 0 0.0 0.0 0.00 0.00 0.00 46 1009.1
20260510005525 67 0 0.0 0.0 0.00 0.00 0.00 45 1009.1
20260510005024 67 0 0.0 0.0 0.00 0.00 0.00 44 1008.9
20260510004536 67 0 0.0 4.0 0.00 0.00 0.00 44 1008.9
20260510004022 67 0 0.0 4.0 0.00 0.00 0.00 43 1008.8
20260510003525 67 287 0.0 2.0 0.00 0.00 0.00 44 1008.7
20260510003042 68 0 0.0 1.0 0.00 0.00 0.00 43 1008.6
20260510002524 68 0 0.0 4.0 0.00 0.00 0.00 42 1008.6
20260510002025 69 0 0.0 4.0 0.00 0.00 0.00 41 1008.5
20260510001541 70 0 0.0 1.0 0.00 0.00 0.00 39 1008.4
20260510001025 71 0 0.0 0.0 0.00 0.00 0.00 37 1008.3
20260510000525 71 0 0.0 0.0 0.00 0.00 0.00 36 1008.2
20260510000037 71 0 0.0 0.0 0.00 0.00 0.00 35 1008.1
20260509235525 72 0 0.0 2.0 0.00 0.00 0.00 34 1008.1
20260509235024 72 0 0.0 2.0 0.00 0.00 0.00 34 1008.2
20260509234542 72 0 0.0 2.0 0.00 0.00 0.00 32 1007.9
20260509234025 73 0 0.0 0.0 0.00 0.00 0.00 33 1007.9
20260509233525 73 0 0.0 0.0 0.00 0.00 0.00 32 1007.8
20260509233044 73 0 0.0 3.0 0.00 0.00 0.00 33 1007.8
20260509232525 73 0 0.0 3.0 0.00 0.00 0.00 32 1007.9
20260509232028 73 0 0.0 3.0 0.00 0.00 0.00 31 1007.8
20260509231543 73 0 0.0 6.0 0.00 0.00 0.00 32 1007.7
20260509231026 73 0 0.0 6.0 0.00 0.00 0.00 31 1007.7
20260509230525 73 0 0.0 6.0 0.00 0.00 0.00 30 1007.6
20260509230037 73 0 0.0 3.0 0.00 0.00 0.00 30 1007.5
20260509225524 73 0 0.0 8.0 0.00 0.00 0.00 31 1007.6
20260509225025 74 0 0.0 8.0 0.00 0.00 0.00 30 1007.5
20260509224535 74 287 0.0 4.0 0.00 0.00 0.00 29 1007.4
20260509224022 74 0 0.0 4.0 0.00 0.00 0.00 31 1007.3
20260509223525 75 287 0.0 4.0 0.00 0.00 0.00 29 1007.3
20260509223039 75 0 0.0 6.0 0.00 0.00 0.00 29 1007.2
20260509222525 76 0 0.0 6.0 0.00 0.00 0.00 28 1007.1
20260509222025 76 0 0.0 6.0 0.00 0.00 0.00 27 1007.2
20260509221538 76 0 0.0 6.0 0.00 0.00 0.00 29 1007.1
20260509221022 76 0 0.0 6.0 0.00 0.00 0.00 28 1007.1
20260509220528 77 0 0.0 6.0 0.00 0.00 0.00 28 1007.1
20260509220038 77 0 0.0 11.0 0.00 0.00 0.00 30 1007.1
20260509215525 77 0 0.0 11.0 0.00 0.00 0.00 28 1007.1
20260509215026 78 287 3.0 11.0 0.00 0.00 0.00 28 1007.1
20260509214535 78 0 2.0 11.0 0.00 0.00 0.00 30 1007.1
20260509214024 78 287 4.0 11.0 0.00 0.00 0.00 30 1007.2
20260509213522 78 0 3.0 11.0 0.00 0.00 0.00 31 1007.2
20260509213043 78 287 4.0 11.0 0.00 0.00 0.00 29 1007.1
20260509212524 77 287 2.0 11.0 0.00 0.00 0.00 35 1007.2
20260509212027 77 0 2.0 11.0 0.00 0.00 0.00 30 1007.1
20260509211540 77 0 2.0 11.0 0.00 0.00 0.00 30 1007.2
20260509211022 77 287 1.0 10.0 0.00 0.00 0.00 29 1007.3
20260509210525 76 0 0.0 10.0 0.00 0.00 0.00 28 1007.2
20260509210044 77 287 3.0 10.0 0.00 0.00 0.00 31 1007.2
20260509205525 77 287 3.0 8.0 0.00 0.00 0.00 32 1007.2
20260509205024 76 0 1.0 9.0 0.00 0.00 0.00 42 1007.4
20260509204540 76 287 1.0 9.0 0.00 0.00 0.00 43 1007.3
20260509204029 77 287 1.0 9.0 0.00 0.00 0.00 43 1007.2
20260509203525 77 287 0.0 8.0 0.00 0.00 0.00 46 1007.3
20260509203043 76 287 1.0 11.0 0.00 0.00 0.00 46 1007.3
20260509202521 76 287 1.0 11.0 0.00 0.00 0.00 41 1007.3
20260509202025 76 287 2.0 9.0 0.00 0.00 0.00 47 1007.2
20260509201544 76 287 3.0 9.0 0.00 0.00 0.00 44 1007.3
20260509201025 77 287 1.0 8.0 0.00 0.00 0.00 43 1007.3
20260509200525 77 287 2.0 10.0 0.00 0.00 0.00 44 1007.3
20260509200037 76 0 4.0 10.0 0.00 0.00 0.00 44 1007.3
20260509195525 76 0 0.0 9.0 0.00 0.00 0.00 47 1007.2
20260509195024 76 0 2.0 9.0 0.00 0.00 0.00 44 1007.4
20260509194538 75 0 0.0 9.0 0.00 0.00 0.00 45 1007.5
20260509194025 75 287 4.0 10.0 0.00 0.00 0.00 44 1007.4
20260509193526 75 0 2.0 11.0 0.00 0.00 0.00 45 1007.5
20260509193042 75 287 3.0 11.0 0.00 0.00 0.00 46 1007.6
20260509192524 75 287 0.0 8.0 0.00 0.00 0.00 49 1007.6
20260509192025 75 0 1.0 8.0 0.00 0.00 0.00 48 1007.6
20260509191540 75 287 2.0 8.0 0.00 0.00 0.00 47 1007.7
20260509191027 75 0 0.0 12.0 0.00 0.00 0.00 47 1007.8
20260509190525 75 287 1.0 12.0 0.00 0.00 0.00 51 1007.9
20260509190045 74 287 5.0 12.0 0.00 0.00 0.00 50 1007.7
20260509185525 74 287 3.0 11.0 0.00 0.00 0.00 50 1007.7
20260509185023 74 0 3.0 11.0 0.00 0.00 0.00 45 1007.7
20260509184551 74 0 0.0 15.0 0.00 0.00 0.00 48 1007.5
20260509184026 74 0 4.0 15.0 0.00 0.00 0.00 43 1007.5
20260509183525 74 0 3.0 10.0 0.00 0.00 0.00 53 1007.3
20260509183037 74 287 3.0 13.0 0.00 0.00 0.00 50 1007.3
20260509182527 74 287 1.0 13.0 0.00 0.00 0.00 48 1007.3
20260509182024 74 287 4.0 19.0 0.00 0.00 0.00 51 1007.2
20260509181551 73 0 2.0 19.0 0.00 0.00 0.00 46 1007.3
20260509181025 73 0 2.0 12.0 0.00 0.00 0.00 52 1007.3
20260509180524 73 0 2.0 12.0 0.00 0.00 0.00 50 1007.3
20260509180043 73 287 3.0 12.0 0.00 0.00 0.00 49 1007.3
20260509175527 72 0 3.0 12.0 0.00 0.03 0.00 53 1007.1
20260509175021 72 0 3.0 12.0 0.00 0.03 0.00 58 1007.2
20260509174536 71 0 4.0 10.0 0.00 0.03 0.00 52 1007.2
20260509174026 71 287 4.0 10.0 0.00 0.03 0.00 60 1007.2
20260509173524 71 287 2.0 8.0 0.00 0.03 0.00 58 1007.1
20260509173042 70 0 2.0 9.0 0.00 0.03 0.00 58 1007.1
20260509172525 70 287 2.0 9.0 0.00 0.03 0.00 64 1007.0
20260509172027 69 287 2.0 9.0 0.00 0.03 0.00 64 1007.0
20260509171538 69 0 1.0 10.0 0.00 0.03 0.00 64 1006.9
20260509171026 68 287 3.0 10.0 0.00 0.03 0.00 65 1007.1
20260509170527 68 287 3.0 11.0 0.00 0.03 0.00 65 1007.1
20260509170046 68 287 3.0 11.0 0.00 0.03 0.00 65 1007.2